Location: Gamarra
(10.0780°N, 67.4929°W)
Time: 09:08:23
(UTC+00:00)

CZ-3C R/B - Pass Details

Date: 13 April 2024
Orbit: 290 x 31657 km, 20.1° (Epoch: 22 May)

Event Time Altitude Azimuth Distance (km) Brightness Sun altitude
Rises 22:48:07 0° 287° (WNW) 15,318 11.3 -2.7°
Reaches altitude 10° 23:09:43 10° 283° (WNW) 8,441 9.1 -7.9°
Maximum altitude 23:26:52 40° 219° (SW) 1,598 3.9 -12.0°
Enters shadow 23:30:35 10° 146° (SE) 1,907 3.6 -12.9°
